Regional Weather Roundup
Issued by NWS Sioux Falls, SD

Home | Current Version | Previous Version | Text Only | Print | Product List | Glossary Off
Versions: 1 2 3 4 5 6 7 8 9 10 11 12 13 14 15 16 17 18 19 20 21 22 23 24 25 26 27 28 29 30 31 32 33 34 35 36 37 38 39 40 41 42 43 44 45 46 47 48 49 50

000
ASUS43 KFSD 042110
RWRFSD

WEATHER ROUNDUP FOR SE SOUTH DAKOTA/SW MINNESOTA/NW IOWA
NATIONAL WEATHER SERVICE SIOUX FALLS SD
400 PM CDT TUE AUG 04 2015

NOTE: "FAIR" INDICATES FEW OR NO CLOUDS BELOW 12,000 FEET WITH NO
SIGNIFICANT WEATHER AND OR OBSTRUCTIONS TO VISIBILITY.


SDZ038>040-050-052>070-042200-
SOUTHEAST SOUTH DAKOTA

CITY           SKY/WX    TMP DP  RH WIND       PRES   REMARKS
BROOKINGS      PTSUNNY   77  61  57 E9        30.02S
CHAMBERLAIN    MOSUNNY   80  65  59 SE10      29.96S
HURON          PTSUNNY   80  62  54 SE7       29.97S
MADISON        MOCLDY    75  64  69 SE8       30.01S
MITCHELL       PTSUNNY   81  66  60 SE12      29.98S
SIOUX FALLS    CLOUDY    77  62  59 E9        30.00R
WINNER         FAIR      84  62  47 E13       29.95F
YANKTON        MOSUNNY   79  64  61 SE10      29.96S
$$

MNZ071-072-080-081-089-090-097-098-042200-
SOUTHWEST MINNESOTA

CITY           SKY/WX    TMP DP  RH WIND       PRES   REMARKS
FAIRMONT       PTSUNNY   77  48  36 S5        29.99F
JACKSON        PTSUNNY   79  54  41 SE3       30.01S
LUVERNE        CLOUDY    77  61  57 S5        30.02R
MARSHALL       PTSUNNY   79  54  41 SE6       30.02S
MONTEVIDEO     MOSUNNY   84  54  34 CALM      30.01F
PIPESTONE      PTSUNNY   75  59  57 CALM      30.02R
REDWOOD FALLS  MOSUNNY   81  47  30 VRB6      29.99S
TRACY          PTSUNNY   79  54  41 E3        30.01F
WINDOM         PTSUNNY   79  48  34 CALM      30.01S
WORTHINGTON    PTSUNNY   75  57  53 E6        30.02R
$$

IAZ001>003-012>014-020>022-031-032-NEZ013-014-SDZ071-042200-
NORTHWEST IOWA

CITY           SKY/WX    TMP DP  RH WIND       PRES   REMARKS
CHEROKEE       PTSUNNY   77  64  63 E7        29.99R
DENISON        PTSUNNY   77  63  61 SE9       29.96R
ESTHERVILLE    CLOUDY    74  55  51 CALM      30.00S
LE MARS        PTSUNNY   79  64  61 E7        29.99S
ORANGE CITY    CLOUDY    77  63  61 E6        29.99S
SHELDON        CLOUDY    79  64  61 VRB5      29.99S
SIOUX CITY     MOSUNNY   79  62  56 SE9       29.97S
SPENCER        PTSUNNY   77  59  53 E7        30.00R
STORM LAKE     PTSUNNY   77  63  61 E6        30.00R
$$

ABBREVIATIONS USED IN REMARKS
   TC - TEMPERATURE IN CELSIUS
  WCI - WIND CHILL INDEX
   HX - HEAT INDEX
  VSB - VISIBILITY




USA.gov is the U.S. government's official web portal to all federal, state and local government web resources and services.